This is the latest recevied weather packets stored in our database for station/object KF0JJO. If no packets are shown the sender has not sent any weather packets the latest 10 day(s).
| Time | Temp. | Humidity | Pressure | Rain* | Wind** | Luminosity | Snow |
|---|---|---|---|---|---|---|---|
| 1777556330 | 4.44° C | 57% | 1050 hPa | 0 mm | - | 56 W/m² | - |
| 1777556027 | 4.44° C | 57% | 1050 hPa | 0 mm | - | 57 W/m² | - |
| 1777555722 | 4.44° C | 58% | 1049.9 hPa | 0 mm | - | 41 W/m² | - |
| 1777555418 | 3.89° C | 59% | 1050 hPa | 0 mm | - | 58 W/m² | - |
| 1777555115 | 3.89° C | 58% | 1050.1 hPa | 0 mm | - | 51 W/m² | - |
| 1777554813 | 3.89° C | 58% | 1050.1 hPa | 0 mm | - | 85 W/m² | - |
| 1777554509 | 3.89° C | 59% | 1050 hPa | 0 mm | - | 77 W/m² | - |
| 1777554206 | 3.89° C | 60% | 1050.2 hPa | 0 mm | - | 49 W/m² | - |
| 1777553903 | 3.89° C | 60% | 1050.1 hPa | 0 mm | - | 39 W/m² | - |
| 1777553599 | 3.33° C | 61% | 1050 hPa | 0 mm | - | 62 W/m² | - |
| 1777553296 | 2.78° C | 62% | 1050 hPa | 0 mm | - | 78 W/m² | - |
| 1777552992 | 2.78° C | 63% | 1050 hPa | 0 mm | - | 48 W/m² | - |
| 1777552691 | 2.78° C | 63% | 1050.1 hPa | 0 mm | - | 37 W/m² | - |
| 1777552389 | 2.78° C | 64% | 1049.9 hPa | 0 mm | - | 33 W/m² | - |
| 1777552085 | 2.78° C | 65% | 1049.8 hPa | 0 mm | - | 37 W/m² | - |
| 1777551782 | 2.22° C | 65% | 1049.8 hPa | 0 mm | - | 29 W/m² | - |
| 1777551480 | 2.22° C | 66% | 1050 hPa | 0 mm | - | 27 W/m² | - |
| 1777551176 | 2.22° C | 65% | 1050.1 hPa | 0 mm | - | 26 W/m² | - |
| 1777550873 | 2.22° C | 66% | 1050.1 hPa | 0 mm | - | 25 W/m² | - |
| 1777550569 | 2.22° C | 66% | 1050.1 hPa | 0 mm | - | 24 W/m² | - |
| 1777550265 | 2.22° C | 67% | 1050 hPa | 0 mm | - | 22 W/m² | - |
| 1777549962 | 2.22° C | 68% | 1049.8 hPa | 0 mm | - | 21 W/m² | - |
| 1777549658 | 2.22° C | 68% | 1049.8 hPa | 0 mm | - | 19 W/m² | - |
| 1777549354 | 1.67° C | 69% | 1049.9 hPa | 0 mm | - | 17 W/m² | - |
| 1777549052 | 1.67° C | 69% | 1049.7 hPa | 0 mm | - | 15 W/m² | - |
* Rain latest hour (hover to see other rain measurements)
** Current wind speed in m/s (hover to see current wind gust speed)